User: anonymous   Login
Location: Houhaj�rvi
(61.2667°N, 23.0167°E)
Time: 11:11:05
(UTC+00:00)
Language:

COSMOS 2455 - Orbit

View from above orbital plane
View from above orbital plane
View from above satellite
View from above satellite

Ground track
Ground track

The orbit data is extracted from the following two-line orbital elements,

1 36095U 09063A   20057.06356424 -.00000067  00000-0  59545-5 0  9992
2 36095  67.1471  92.3363 0003641 289.8401  70.2291 13.96763223523657
Epoch (UTC): 26 February 2020 01:31:31
Eccentricity: 0.0003641
inclination: 67.1471°
perigee height: 902 km
apogee height: 907 km
right ascension of ascending node: 92.3363°
argument of perigee: 289.8401°
revolutions per day: 13.96763223
mean anomaly at epoch: 70.2291°
orbit number at epoch: 52365

The dashed part of the orbit path shows where the satellite is in the earth's shadow,  

DLR